Location: Marcé
(47.5801°N, 0.3280°W)
Time: 15:12:05
(UTC+01:00)

Vanguard 3 - Pass Details

Date: 13 December 2021
Orbit: 508 x 3260 km, 33.3° (Epoch: 20 January)

Event Time Altitude Azimuth Distance (km) Brightness Sun altitude
Rises 23:24:35 0° 186° (S) 5,242 - -59.6°
Reaches altitude 10° 23:29:19 10° 169° (S) 4,730 - -60.1°
Maximum altitude 23:37:44 18° 132° (SE) 4,747 - -61.1°
Drops below altitude 10° 23:48:03 10° 97° (E) 5,998 - -62.1°
Exits shadow 23:54:41 - 84° (E) 7,100 11.8 -62.7°
Sets 23:55:19 0° 83° (E) 7,209 11.9 -62.8°
